Torna al catalogo

ATLAS 2A CENTAUR R/B

AttivoUNKNOWN
NORAD 25968·ROCKET BODY·🇺🇸 United States

Lanciato Nov 23, 1999 da Cape Canaveral Space Force Station

Loading…

Prossimi Passaggi (prossime 24 ore)

TLE

AggiornatoSource: Space-Track

Epoca: Sep 14, 2026, 15:08 UTC

1 25968U 99063B   26257.63072739  .00547692 -43134-5  12266-2 0  9999
2 25968  26.7583  60.8707 1971229 341.7462  12.1030 11.77247867459318

Traccia ATLAS 2A CENTAUR R/B in tempo reale con AllMySat

Download on the App Store